Location: Gazon
(48.1318°N, 1.2708°W)
Time: 02:35:56
(UTC+00:00)

USA 238 - Pass Details

Date: 18 September 2020
Orbit: 1006 x 1206 km, 63.4° (Epoch: 28 October)

Event Time Altitude Azimuth Distance (km) Brightness Sun altitude
Rises 19:30:57 0° 318° (NW) 3,924 7.8 -14.0°
Reaches altitude 10° 19:33:36 10° 321° (NW) 2,993 7.0 -14.4°
Maximum altitude 19:40:45 67° 44° (NE) 1,247 3.9 -15.5°
Enters shadow 19:45:45 22° 122° (ESE) 2,296 4.8 -16.3°
